Location: ?????
(55.8833°N, 37.6500°E)
Time: 08:39:32
(UTC+00:00)

STARLINK-1023 - Pass Details

Date: 27 February 2020
Orbit: 559 x 560 km, 53.0° (Epoch: 28 March)

Event Time Altitude Azimuth Distance (km) Brightness Sun altitude
Rises 17:15:38 0° 273° (W) 2,748 8.7 -19.9°
Reaches altitude 10° 17:17:55 10° 268° (W) 1,852 7.4 -20.2°
Maximum altitude 17:22:00 51° 193° (SSW) 709 4.1 -20.8°
Enters shadow 17:22:33 47° 164° (SSE) 746 4.0 -20.8°
